#timestamp,LO_Frequency,Hit,StdDev 
1621292415.5,286047000.1,N
1621292435.3,286046998.7,N
1621292455.2,286047000.5,N
1621292475.0,286046999.5,N
1621292475.9,286046999.5,N
1621292495.7,286046998.9,N
1621292515.6,286046998.7,N
1621292535.4,286046998.2,N
1621292555.3,286047000.3,N
1621292575.1,286046999.2,N
1621292576.0,286046999.2,N
1621292595.8,286046997.0,N
1621292615.7,286046998.0,N
1621292635.5,286046995.4,N
1621292655.3,286046994.9,N
1621292675.2,286046995.9,N
1621292695.0,286046992.4,Y
1621292695.9,286046992.4,P
1621292715.8,286046992.5,N
1621292735.6,286046990.1,P
1621292755.4,286046990.9,N
1621292775.3,286046994.4,N
1621292795.1,286046990.7,Y
1621292815.9,286046999.2,P
1621292835.7,286046997.5,N
1621292855.5,286046999.3,N
1621292875.4,286046997.1,N
1621292895.2,286046995.4,N
1621292915.0,286046995.0,N
1621292915.9,286046995.0,N
1621292935.8,286046997.8,N
1621292955.6,286046995.5,N
1621292975.5,286046999.3,N
1621292995.3,286046996.9,N
1621293015.1,286046999.6,N
1621293035.9,286046996.5,N
1621293055.7,286046996.5,N
1621293075.5,286046997.1,N
1621293095.4,286046997.8,N
1621293115.2,286046997.1,N
1621293135.1,286046999.4,N
1621293136.0,286046999.4,N
1621293155.8,286047000.6,N
1621293175.6,286047000.3,N
1621293195.5,286047000.7,N
1621293215.3,286046999.0,N
1621293235.1,286046997.1,N
1621293255.9,286046996.6,N
1621293275.7,286046999.5,N
1621293295.6,286046999.2,N
1621293315.4,286046999.1,N
1621293335.2,286046999.7,N
1621293355.1,286047002.8,N
1621293356.0,286047002.8,N
1621293375.8,286047000.1,N
1621293395.7,286047003.9,N
1621293415.5,286047006.0,N
1621293435.3,286047004.1,N
1621293455.2,286047001.8,N
1621293475.9,286047004.3,N
1621293495.7,286047000.6,N
1621293515.6,286047004.2,N
1621293535.4,286047005.2,N
1621293555.3,286047007.5,N
1621293575.1,286047002.9,N
1621293576.0,286047002.9,N
1621293595.8,286047005.0,N
1621293615.7,286047005.7,N
1621293635.5,286047002.3,N
1621293655.3,286047000.0,N
1621293675.2,286047000.0,N
1621293695.0,286047001.7,N
1621293695.9,286047001.7,N
1621293715.8,286047004.4,N
1621293735.6,286047004.4,N
1621293755.4,286047002.6,N
1621293775.3,286047001.8,N
1621293795.1,286047002.6,N
1621293815.8,286047000.9,N
1621293835.7,286046998.1,N
1621293855.5,286046996.5,N
1621293875.4,286046999.0,N
1621293895.2,286047002.0,N
1621293945.1,286047000.7,E
1621293955.9,286046999.2,N
1621293975.7,286046996.7,P
1621293995.6,286046997.2,N
1621294015.4,286046997.5,N
1621294035.2,286046996.7,Y
1621294055.1,286046999.5,P
1621294056.0,286046999.5,N
1621294075.8,286047002.3,N
1621294095.7,286047000.9,N
1621294115.5,286047000.9,N
1621294135.3,286046999.5,N
1621294155.2,286046999.0,N
1621294175.0,286047000.7,N
1621294175.9,286047000.7,N
1621294195.7,286047001.0,N
1621294215.6,286047000.8,N
1621294235.4,286046999.8,N
1621294255.3,286047002.1,N
1621294275.1,286047001.4,N
1621294276.0,286047001.4,N
1621294295.8,286047001.9,N
1621294315.7,286047001.0,N
1621294335.5,286046998.8,N
1621294355.3,286047000.9,N
1621294375.2,286046998.5,N
1621294395.0,286047000.3,N
1621294395.9,286047000.3,N
1621294415.8,286047000.2,N
1621294435.6,286047000.5,N
1621294455.4,286047004.4,Y
1621294475.3,286047001.8,P
1621294495.1,286047004.0,P
1621294515.9,286047002.2,N
1621294535.7,286047003.7,N
1621294555.5,286047003.7,N
1621294575.4,286047005.6,Y
1621294595.2,286047001.5,P
1621294615.0,286047004.2,P
1621294615.9,286047004.2,P
1621294635.8,286046999.8,N
1621294655.6,286047004.3,N
1621294675.5,286047004.3,N
1621294695.3,286047005.9,Y
1621294715.1,286047002.0,P
1621294735.9,286047000.0,N
1621294755.7,286046999.8,N
1621294775.6,286047003.9,N
1621294795.4,286047002.1,N
1621294815.2,286047004.2,N
1621294835.1,286047005.6,Y
1621294836.0,286047005.6,P
1621294855.8,286047003.7,N
1621294875.7,286047005.8,P
1621294895.5,286047004.6,Y
1621294915.3,286047001.7,P
1621294935.2,286046999.9,N
1621294955.0,286047004.4,N
1621294955.9,286047004.4,N
1621294975.7,286047003.9,N
1621294995.6,286047003.9,N
1621295015.4,286047001.5,N
1621295035.3,286047003.1,N
1621295055.1,286047004.3,N
1621295056.0,286047004.3,N
1621295075.8,286047001.6,N
1621295095.7,286047001.6,N
1621295115.5,286047002.6,N
1621295135.3,286047000.8,N
1621295155.2,286047000.2,N
1621295175.0,286047000.9,N
1621295175.9,286047000.9,N
1621295195.8,286047000.4,N
1621295215.6,286047001.4,N
1621295235.4,286047001.5,N
1621295255.3,286047003.9,N
1621295275.1,286047005.9,Y
1621295295.9,286047001.5,P
1621295315.7,286047004.2,P
1621295335.5,286047000.2,N
1621295355.4,286047003.2,N
1621295375.2,286047005.7,Y
1621295395.0,286047004.4,P
1621295396.0,286047004.4,P
1621295415.8,286047002.5,N
1621295435.6,286046998.8,N
1621295455.5,286046998.4,N
1621295475.3,286047001.0,N
1621295495.1,286047002.3,N
1621295515.9,286047001.5,N
1621295535.7,286047000.4,N
1621295555.6,286047000.0,N
1621295575.4,286047001.5,N
1621295595.2,286047001.7,N
1621295615.1,286047004.3,N
1621295616.0,286047004.3,N
1621295635.8,286047005.5,N
1621295655.6,286047006.9,Y
1621295675.5,286047005.5,P
1621295695.3,286047007.1,P
1621295715.2,286047003.1,N
1621295735.9,286047005.9,N
1621295755.7,286047006.2,Y
1621295775.6,286047000.1,P
1621295795.4,286047000.9,N
1621295815.3,286046998.1,N
1621295835.1,286047000.9,N
1621295836.0,286047000.9,N
1621295855.8,286047002.7,N
1621295875.7,286046999.7,N
1621295895.5,286046999.8,N
1621295915.3,286047002.6,N
1621295935.2,286047000.1,N
1621295955.0,286047000.9,N
1621295955.9,286047000.9,N
1621295975.8,286047000.0,N
1621295995.6,286047000.8,N
